Location: Alvediston
(51.0078°N, 2.0364°W)
Time: 20:12:28
(UTC+00:00)

STARLINK-25 - Pass Details

Date: 27 February 2020
Orbit: 528 x 531 km, 53.0° (Epoch: 30 March)

Event Time Altitude Azimuth Distance (km) Brightness Sun altitude
Rises 18:52:28 0° 271° (W) 2,666 9.4 -11.4°
Reaches altitude 10° 18:54:42 10° 275° (W) 1,776 7.8 -11.8°
Maximum altitude 18:58:42 64° 357° (N) 588 3.7 -12.4°
Enters shadow 19:01:25 20° 76° (ENE) 1,277 4.9 -12.8°
